Flag for Canada Weather past 2 weeks in Moose Jaw, Saskatchewan, Canada

Now
55 °F

Passing clouds.


Feels Like: 54 °F
Forecast: 51 / 78 °F
Wind: 7 mph from Southeast

Location: Regina Weather Station

Current Time: Jul 28, 2014 at 3:06:43 AM

Latest Report: Jul 28, 2014 at 2:00 AM


Visibility: 15 mi

Pressure: 30.33 "Hg

Humidity: 94%

Dew point: 54 °F

Location of Moose JawLocation

Historic Weather in Moose Jaw — Graph

°F

Moose Jaw temperature yesterday

Maximum temperature yesterday: 70 °F (at 4:00 PM)
Minimum temperature yesterday: 54 °F (at 5:00 AM)
Average temperature yesterday: 62 °F

Past Weeks' High & Low Weather Summary

 TemperatureHumidityPressure
High84 °F (Jul 19, 4:00 PM)100% (Jul 14, 4:00 AM)30.42 "Hg (Jul 14, 4:00 AM)
Low43 °F (Jul 13, 5:00 AM)36% (Jul 15, 3:00 PM)29.52 "Hg (Jul 18, 4:00 AM)
Average65 °F73%29.96 "Hg
* Reported Jul 13 2:00 AM — Jul 28 2:00 AM, Moose Jaw, Weather by CustomWeather, © 2014

Note: Actual official high and low records may vary slightly from our data, if they occured in-between our weather recording intervals... More about our weather records

Advertising

Moose Jaw weather history for previous 24 hours

 ConditionsComfort  
Time TempWeatherWind HumidityBarometerVisibility
2:00 AM
Jul 28
55 °FPassing clouds.7 mph94%30.33 "Hg15 mi
1:00 AM57 °FPassing clouds.8 mph88%30.32 "Hg15 mi
12:00 AM57 °FPassing clouds.7 mph94%30.32 "Hg15 mi
11:00 PM
Jul 27
59 °FPassing clouds.7 mph88%30.31 "Hg15 mi
10:00 PM61 °FPassing clouds.6 mph88%30.31 "Hg15 mi
9:00 PM63 °FClear.7 mph83%30.30 "Hg15 mi
8:00 PM66 °FPassing clouds.7 mph73%30.29 "Hg15 mi
7:00 PM68 °FBroken clouds.7 mph69%30.29 "Hg15 mi
6:00 PM68 °FPartly sunny.6 mph69%30.30 "Hg15 mi
5:00 PM70 °FBroken clouds.5 mph60%30.30 "Hg13 mi
4:00 PM70 °FPartly sunny.7 mph64%30.30 "Hg13 mi
3:00 PM68 °FPartly sunny.3 mph69%30.31 "Hg15 mi
2:00 PM66 °FPartly sunny.No wind68%30.31 "Hg15 mi
1:00 PM66 °FPartly sunny.3 mph68%30.31 "Hg15 mi
12:00 PM64 °FOvercast.2 mph68%30.32 "Hg15 mi
11:00 AM64 °FOvercast.3 mph73%30.32 "Hg15 mi
10:00 AM64 °FPartly sunny.3 mph64%30.30 "Hg15 mi
9:00 AM61 °FPartly sunny.No wind77%30.30 "Hg15 mi
8:00 AM61 °FPassing clouds.3 mph77%30.29 "Hg15 mi
7:00 AM57 °FScattered clouds.2 mph94%30.28 "Hg15 mi
6:00 AM55 °FPartly sunny.2 mph100%30.26 "Hg15 mi
5:00 AM54 °FPassing clouds.2 mph100%30.24 "Hg15 mi
4:00 AM55 °FPassing clouds.No wind100%30.23 "Hg15 mi
3:00 AM55 °FOvercast.2 mph100%30.21 "Hg15 mi
Weather by CustomWeather, © 2014

See weather overviewHow to use our weather pages